Skip Page Navigation
NASA JPL Caltech
NASA Logo - Jet Propulsion Laboratory + View the NASA Portal
+ Center for Near-Earth Object Studies
JPL Home Earth Solar System Stars & Galaxies Technology
JPL Solar System Dynamics
BODIES ORBITS EPHEMERIDES TOOLS PHYSICAL DATA DISCOVERY FAQ SITE MAP
JPL Small-Body Database Browser
Search: [ help ]  
12620 Simaqian (6335 P-L)
Classification: Main-belt Asteroid          SPK-ID: 2012620
Ephemeris | Orbit Diagram | Orbital Elements | Mission Design | Physical Parameters | Discovery Circumstances | Close-Approach Data ]

[ show orbit diagram ]
Orbital Elements at Epoch 2459000.5 (2020-May-31.0) TDB
Reference: JPL 26 (heliocentric ecliptic J2000)
 Element Value Uncertainty (1-sigma)   Units 
e .1446311233576069 2.7246e-08  
a 3.095552420446446 1.536e-08 au
q 2.647839196464917 8.1554e-08 au
i .9185379423394506 4.3881e-06 deg
node 180.0191375128076 0.00019659 deg
peri 59.27880555952889 0.00019726 deg
M 79.94497317888153 1.7085e-05 deg
tp 2458558.731921236854
(2019-Mar-16.23192124)
9.3361e-05 TDB
period 1989.324682102017
5.45
1.4806e-05
4.054e-08
d
yr
n .1809659344394232 1.3469e-09 deg/d
Q 3.543265644427975 1.7581e-08 au
  Orbit Determination Parameters
   # obs. used (total)      1765  
   data-arc span      21965 days (60.14 yr)  
   first obs. used      1960-09-24  
   last obs. used      2020-11-13  
   planetary ephem.      DE431  
   SB-pert. ephem.      SB431-N16  
   condition code      0  
   norm. resid. RMS      .52946  
   source      ORB  
   producer      Otto Matic  
   solution date      2020-Dec-18 02:49:54  

Additional Information
 Earth MOID = 1.63574 au 
 Jupiter MOID = 1.46487 au 
 T_jup = 3.207 
[ show covariance matrix ]

Ephemeris | Orbit Diagram | Orbital Elements | Mission Design | Physical Parameters | Discovery Circumstances | Close-Approach Data ]

Physical Parameter Table
Parameter Symbol Value Units Sigma Reference Notes
absolute magnitude H 13.8   n/a MPO473937  

12620 Simaqian           Discovered 1960 Sept. 24 by C. J. van Houten and I. van Houten-Groeneveld on Palomar Schmidt plates taken by T. Gehrels.
Sima Qian (c. 145 B.C.-c. 85 B.C.) was a Chinese historian, counselor and court astrologer of the Han emperor Wu Di. He wrote a treatise on the Chinese calendar. His Shiji ("Records of the Grand Historian") contains the earliest systematical description of the Chinese constellations.
NOTE: some special characters may not display properly (any characters within {} are an attempt to place the proper accent above a character)
Reference: 20080122/MPCPages.arcLast Updated: 2008-03-05

[ show close-approach data ]
Alternate Designations
 6335 P-L = 1992 OD8 = 1996 DD7 
Ephemeris | Orbit Diagram | Orbital Elements | Mission Design | Physical Parameters | Discovery Circumstances | Close-Approach Data ]
ABOUT SSD CREDITS/AWARDS PRIVACY/COPYRIGHT GLOSSARY LINKS
FirstGov 2021-Jan-25 15:16 UT
(server date/time)  
NASA Home Page
Site Manager:   Ryan S. Park
Webmaster  Alan B. Chamberlin